Tracking 35275 objects as of 8-Sep-2026
HD Live streaming from Space Station
objects crossing your sky now

SPACEBEE-84


SPACEBEE-84 is no longer on orbit


NORAD ID: 47706
Int'l Code: 2021-015H
Launch date: February 28, 2021
Source: United States (US)
Launch site: SRIHARIKOTA (SRI)
Decay date: 2023-01-02
Your satellite tracking list
Your tracking list is empty




NASA's NSSDC Master Catalog

Two Line Element Set (TLE):
1 47706U 21015H   23001.63249112  .09331765  24261-5  23735-2 0  9993
2 47706  97.3652  90.0110 0009313 305.0844  54.9576 16.28799769103003
Source of the keplerian elements: AFSPC